Volver al catálogo

ORBCOMM FM 26

ActivoComunicacionesLEO
NORAD 25480·PAYLOAD·🇺🇸 United States

Lanzado Sep 23, 1998 desde Cape Canaveral Space Force Station

Loading…

Próximos Pases (próximas 24 horas)

TLE

ActualizadoSource: Space-Track

Época: Sep 14, 2026, 09:42 UTC

1 25480U 98053F   26257.40482962  .00000432  00000-0  18787-3 0  9994
2 25480  45.0058 271.6392 0005715 354.7021   5.3766 14.38088910463016

Sigue ORBCOMM FM 26 en tiempo real con AllMySat

Download on the App Store